EW6230 Weather Reports


time (UTC)temp
F
wind
direction
speed
knots
gust
knots
rain 1hr
in
rain 24hr
in
rain mn
in
humidity
%
barometer
mb
20260508190008 51 91 0.0 0.9 0.00 0.00 0.00 41 1016.9
20260508184505 51 91 0.0 0.9 0.00 0.00 0.00 43 1016.7
20260508183100 51 96 0.0 0.0 0.00 0.00 0.00 36 1016.7
20260508181602 51 96 0.0 0.0 0.00 0.00 0.00 36 1016.6
20260508180051 50 96 0.0 1.7 0.00 0.00 0.00 34 1016.6
20260508174546 51 97 0.0 0.9 0.00 0.00 0.00 30 1016.3
20260508173041 50 233 0.0 0.0 0.00 0.00 0.00 21 1016.2
20260508171543 50 226 0.0 1.7 0.00 0.00 0.00 21 1016.0
20260508170034 50 141 0.0 0.9 0.00 0.00 0.00 16 1016.0
20260508164529 50 63 0.0 0.9 0.00 0.00 0.00 14 1015.7
20260508163024 51 63 0.0 0.0 0.00 0.00 0.00 6 1015.5
20260508161519 51 16 0.0 0.9 0.00 0.00 0.00 1 1015.2
20260508160032 51 142 0.0 0.9 0.00 0.00 0.00 1 1015.1
20260508154511 50 129 0.0 0.0 0.00 0.00 0.00 1 1015.0
20260508153006 50 130 0.0 0.0 0.00 0.00 0.00 1 1015.0
20260508151502 50 130 0.0 0.0 0.00 0.00 0.00 1 1015.0
20260508150056 49 130 0.0 0.9 0.00 0.00 0.00 1 1014.7
20260508144552 49 141 0.0 0.9 0.00 0.00 0.00 1 1014.7
20260508143059 0 0.0 0.0 0.00 0.00 0.00 1014.5
20260508141552 0 0.0 0.0 0.00 0.00 0.00 1014.4
20260508140042 0 0.0 0.0 0.00 0.00 0.00 1014.3
20260508134535 0 0.0 0.0 0.00 0.00 0.00 1014.2
20260508133030 0 0.0 0.0 0.00 0.00 0.00 1014.0
20260508131527 0 0.0 0.0 0.00 0.00 0.00 1013.7
20260508130025 47 165 0.0 0.0 0.00 0.00 0.00 1 1013.6
20260508124521 46 164 0.0 0.0 0.00 0.00 0.00 1 1013.7
20260508123017 46 191 0.0 0.0 0.00 0.00 0.00 1 1013.7
20260508121535 46 190 0.0 0.0 0.00 0.00 0.00 1 1013.6
20260508120008 46 191 0.0 0.0 0.00 0.00 0.00 1 1013.6
20260508114504 46 190 0.0 0.0 0.00 0.00 0.00 1 1013.5
20260508113107 46 191 0.0 0.0 0.00 0.00 0.00 1 1013.5
20260508111554 46 191 0.0 0.0 0.00 0.00 0.00 1 1013.5
20260508110054 46 191 0.0 0.0 0.00 0.00 0.00 1 1013.3
20260508104545 46 191 0.0 0.0 0.00 0.00 0.00 1 1013.1
20260508103040 46 191 0.0 0.0 0.00 0.00 0.00 1 1013.0
20260508101538 46 191 0.0 0.0 0.00 0.00 0.00 1 1013.1
20260508100033 47 191 0.0 0.0 0.00 0.00 0.00 1 1013.0
20260508094529 47 191 0.0 0.0 0.00 0.00 0.00 1 1013.0
20260508093024 47 191 0.0 0.0 0.00 0.00 0.00 1 1012.9
20260508091520 47 191 0.0 0.0 0.00 0.00 0.00 1 1012.7
20260508090017 47 169 0.0 0.0 0.00 0.00 0.00 1 1012.6
20260508084511 47 169 0.0 0.0 0.00 0.00 0.00 1 1012.8
20260508083020 48 169 0.0 0.0 0.00 0.00 0.00 1 1012.7
20260508081606 48 169 0.0 0.0 0.00 0.00 0.00 1 1012.6
20260508080101 48 169 0.0 0.0 0.00 0.00 0.00 1 1012.6
20260508074554 48 169 0.0 0.0 0.00 0.00 0.00 1 1012.6
20260508073056 48 169 0.0 0.0 0.00 0.00 0.00 1 1012.8
20260508071549 48 169 0.0 0.0 0.00 0.00 0.00 1 1012.7
20260508070044 48 169 0.0 0.0 0.00 0.00 0.00 1 1012.9
20260508064555 48 169 0.0 0.0 0.00 0.00 0.00 1 1013.1
20260508063036 48 169 0.0 0.0 0.00 0.00 0.00 1 1013.2
20260508061531 48 168 0.0 0.0 0.00 0.00 0.00 1 1013.1
20260508060024 48 169 0.0 0.0 0.00 0.00 0.00 1 1013.2
20260508054520 48 169 0.0 0.0 0.00 0.00 0.00 1 1013.4
20260508053014 48 169 0.0 0.0 0.00 0.00 0.00 1 1013.4
20260508051509 48 169 0.0 0.0 0.00 0.00 0.00 1 1013.3
20260508050005 48 169 0.0 0.0 0.00 0.00 0.00 1 1013.4
20260508044504 49 169 0.0 0.0 0.00 0.00 0.00 1 1013.4
20260508043101 49 169 0.0 0.0 0.00 0.00 0.00 1 1013.4
20260508041603 50 169 0.0 0.0 0.00 0.00 0.00 1 1013.4
20260508040053 51 158 0.0 0.0 0.00 0.00 0.00 1 1013.4
20260508034551 51 158 0.0 0.0 0.00 0.00 0.00 8 1013.4
20260508033042 51 158 0.0 0.0 0.00 0.00 0.00 11 1013.6
20260508031537 52 157 0.0 0.0 0.00 0.00 0.00 20 1013.6
20260508030035 53 157 0.0 0.0 0.00 0.00 0.00 26 1013.6
20260508024530 53 157 0.0 0.0 0.00 0.00 0.00 29 1013.7
20260508023033 53 157 0.0 0.0 0.00 0.00 0.00 34 1013.8
20260508021519 53 156 0.0 0.0 0.00 0.00 0.00 36 1013.9
20260508020016 54 156 0.0 0.0 0.00 0.00 0.00 38 1014.2
20260508014511 54 157 0.0 0.0 0.00 0.00 0.00 44 1014.3
20260508013007 55 156 0.0 0.0 0.00 0.00 0.00 49 1014.2
20260508011501 55 157 0.0 0.0 0.00 0.00 0.00 51 1014.5
20260508010107 56 156 0.0 0.0 0.00 0.00 0.00 55 1014.5
20260508004602 56 210 0.0 0.0 0.00 0.00 0.00 54 1014.4
20260508003101 57 210 0.0 0.0 0.00 0.00 0.00 57 1014.6
20260508001546 58 210 0.0 0.9 0.00 0.00 0.00 60 1014.6
20260508000040 59 122 0.0 0.0 0.00 0.00 0.00 62 1014.6
20260507234536 61 122 0.0 0.9 0.00 0.00 0.00 61 1014.6
20260507233032 61 122 0.0 0.9 0.00 0.00 0.00 61 1014.6
20260507231527 61 32 0.0 1.7 0.00 0.00 0.00 61 1014.7
20260507230023 61 249 0.0 0.0 0.00 0.00 0.00 61 1014.9
20260507224519 61 248 0.0 0.0 0.00 0.00 0.00 61 1015.0
20260507223014 62 244 0.0 0.0 0.00 0.00 0.00 61 1015.1
20260507221509 63 227 0.0 0.9 0.00 0.00 0.00 60 1015.2
20260507220005 64 111 0.0 0.9 0.00 0.00 0.00 59 1015.3
20260507214500 64 116 0.0 0.9 0.00 0.00 0.00 61 1015.4
20260507213108 63 337 0.0 0.9 0.00 0.00 0.00 60 1015.5
20260507211553 62 49 0.0 0.9 0.00 0.00 0.00 61 1015.7
20260507210053 63 36 0.0 0.9 0.00 0.00 0.00 61 1015.9
20260507204556 63 333 0.0 0.9 0.00 0.00 0.00 61 1016.1
20260507203040 62 46 0.0 0.9 0.00 0.00 0.00 62 1016.3
20260507201539 62 358 0.0 0.9 0.00 0.00 0.00 61 1016.5
20260507200036 62 301 0.0 0.9 0.00 0.00 0.00 61 1016.5
20260507194526 62 212 0.0 2.6 0.00 0.00 0.00 61 1016.5
20260507193027 61 193 0.0 2.6 0.00 0.00 0.00 62 1016.6
20260507191517 60 352 0.0 0.9 0.00 0.00 0.00 62 1016.7